This demonstration page uses our WeatherBlox Daily Observations layout. Learn more.

Left ArrowRight Arrow

Hourly Observations for January 22, 2015

Temp ( °F °C ) Dew Point ( °F °C ) Humidity (%) Winds ( mph kmh ) Pressure ( in mb ) Visibility ( mi km ) Precip ( " mm )
12:52 am 00:52 Cloudy 31 -0.6 27 -2.8 85 85 NW 6 9 30.42 1030 10 16 0.00 0.00
1:12 am 01:12 Cloudy 30 -1 27 -3 86 86 NW 6 9 30.42 1030 10 16 0.00 0.00
1:52 am 01:52 Cloudy 31 -0.6 27 -2.8 85 85 Calm 30.42 1030 10 16 0.00 0.00
2:35 am 02:35 Cloudy 30 -1.1 26 -3.3 85 85 NNW 6 9 30.45 1031 10 16 0.00 0.00
2:52 am 02:52 Cloudy 31 -0.6 27 -2.8 85 85 NNW 7 11 30.43 1031 10 16 0.00 0.00
3:33 am 03:33 Cloudy 31 -0.6 26 -3.3 82 82 NNW 12 19 30.45 1031 10 16 0.00 0.00
3:52 am 03:52 Cloudy 31 -0.6 26 -3.3 82 82 N 10 17 30.44 1031 10 16 0.00 0.00
4:52 am 04:52 Cloudy 31 -0.6 23 -5 72 72 N 13 20 30.47 1032 10 16 0.00 0.00
5:52 am 05:52 Cloudy 31 -0.6 21 -6.1 67 67 NNW 8 13 30.48 1032 10 16 0.00 0.00
6:52 am 06:52 Cloudy 30 -1.1 22 -5.6 72 72 NNW 3 6 30.51 1033 10 16 0.00 0.00
7:52 am 07:52 Cloudy 30 -1.1 23 -5 75 75 NNW 3 6 30.52 1034 10 16 0.00 0.00
8:52 am 08:52 Cloudy 31 -0.6 23 -5 72 72 Calm 30.53 1034 10 16 0.00 0.00
9:52 am 09:52 Mostly Cloudy 32 0 22 -5.6 66 66 NW 6 9 30.53 1034 10 16 0.00 0.00
10:05 am 10:05 Mostly Cloudy 33 0.6 22 -5.6 64 64 WNW 8 13 30.53 1034 10 16 0.00 0.00
10:52 am 10:52 Mostly Cloudy 34 1.1 22 -5.6 61 61 NNW 8 13 30.51 1033 10 16 0.00 0.00
11:52 am 11:52 Partly Cloudy 37 2.8 22 -5.6 54 54 N 8 13 30.50 1033 10 16 0.00 0.00
12:52 pm 12:52 Mostly Cloudy 37 2.8 22 -5.6 54 54 WNW 6 9 30.48 1032 10 16 0.00 0.00
1:52 pm 13:52 Mostly Cloudy 37 2.8 22 -5.6 54 54 SSW 7 11 30.45 1031 10 16 0.00 0.00
2:52 pm 14:52 Partly Cloudy 37 2.8 22 -5.6 54 54 WSW 9 15 30.42 1030 10 16 0.00 0.00
3:52 pm 15:52 Mostly Sunny 38 3.3 23 -5 55 55 SSW 7 11 30.41 1030 10 16 0.00 0.00
4:52 pm 16:52 Mostly Sunny 36 2.2 23 -5 59 59 SSW 7 11 30.40 1029 10 16 0.00 0.00
5:52 pm 17:52 Mostly Clear 34 1.1 23 -5 64 64 S 6 9 30.39 1029 10 16 0.00 0.00
6:52 pm 18:52 Clear 32 0 23 -5 69 69 S 8 13 30.40 1029 10 16 0.00 0.00
7:52 pm 19:52 Clear 31 -0.6 23 -5 72 72 S 9 15 30.39 1029 10 16 0.00 0.00
8:52 pm 20:52 Clear 26 -3.3 21 -6.1 81 81 S 7 11 30.40 1029 10 16 0.00 0.00
9:52 pm 21:52 Clear 26 -3.3 21 -6.1 81 81 SSE 8 13 30.37 1029 10 16 0.00 0.00
10:52 pm 22:52 Clear 24 -4.4 20 -6.7 84 84 SSE 9 15 30.36 1028 10 16 0.00 0.00
11:52 pm 23:52 Clear 26 -3.3 21 -6.1 81 81 S 9 15 30.35 1028 10 16 0.00 0.00

Powered by AerisWeather